Regional Weather Roundup
Issued by NWS Portland, ME

Current Version | Previous Version | Graphics & Text | Print | Product List | Glossary On
Versions: 1 2 3 4 5 6 7 8 9 10 11 12 13 14 15 16 17 18 19 20 21 22 23 24 25 26 27 28 29 30 31 32 33 34 35 36 37 38 39 40 41 42 43 44 45 46 47 48 49 50
000
ASUS41 KGYX 010210
RWRGYX
WEATHER ROUNDUP FOR MAINE AND NEW HAMPSHIRE
NATIONAL WEATHER SERVICE GRAY ME
1000 PM EDT THU JUL 31 2014

MEZ002-005-006-010-012-015-018-020-021-024-026-027-029-010300-
MAINE

CITY           SKY/WX    TMP DP  RH WIND       PRES   REMARKS
PORTLAND       PTCLDY    66  60  81 SW3       30.13R
SANFORD        PTCLDY    63  59  88 CALM      30.15R
BAR HARBOR     CLOUDY    63  63 100 CALM      30.17S
WISCASSET      PTCLDY    66  62  87 CALM      30.15S
ROCKLAND       PTCLDY    63  63 100 CALM      30.14F
FRYEBURG       CLEAR     59  58  96 CALM      30.14R
LEWISTONAUBURN CLEAR     63  57  82 CALM      30.13S
AUGUSTA        CLEAR     64  60  87 S3        30.14S
WATERVILLE     CLEAR     63  59  88 CALM      30.10S
BANGOR         PTCLDY    65  60  84 S8        30.15S
GREENVILLE       N/A     58  56  93 S5        30.13S
MILLINOCKET    PTCLDY    63  60  90 N3        30.14R
HOULTON        PTCLDY    65  54  67 S6        30.11S
PRESQUE ISLE   CLOUDY    63  55  77 W3        30.11S
FRENCHVILLE    CLOUDY    58  57  97 S5        30.09S
CARIBOU        CLOUDY    61  59  93 CALM      30.10R
$$

NHZ002-005-008-009-011-012-014-010300-
NEW HAMPSHIRE

CITY           SKY/WX    TMP DP  RH WIND       PRES   REMARKS
PORTSMOUTH     MOCLDY    66  65  94 S3        30.13R
ROCHESTER      LGT RAIN  65  63  93 VRB5      30.15R
NASHUA         PTCLDY    68  66  93 CALM      30.16R
MANCHESTER     CLOUDY    67  64  90 NW3       30.15R
CONCORD        CLOUDY    64  63  96 S5        30.15R
LACONIA          N/A     66  59  77 SW3       30.13S
PLYMOUTH       FAIR      59  57  94 CALM      30.14R FOG
BERLIN         PTCLDY    58  57  97 E3        30.15R FOG
WHITEFIELD     CLEAR     58  55  90 CALM      30.14R FOG
JAFFREY        PTCLDY    63  61  93 CALM      30.18R
LEBANON        CLEAR     62  59  90 CALM      30.13R
MT WASHINGTON  FOG       45  45 100 W29         N/A  VSB 0
$$

VTZ005-007-008-010300-
VERMONT

CITY           SKY/WX    TMP DP  RH WIND       PRES   REMARKS
ST JOHNSBURY     N/A     60  58  92 MISG      30.11R
MONTPELIER     CLEAR     57  55  93 SW3       30.16R
BURLINGTON     CLEAR     63  60  90 CALM      30.09R
$$

MAZ007-012-024-CTZ003-RIZ002-NYZ038-NYZ072-010300-
SOUTHERN NEW ENGLAND AND NY

CITY           SKY/WX    TMP DP  RH WIND       PRES   REMARKS
BOSTON         MOCLDY    71  59  65 S13       30.15R
WORCESTER      CLEAR     67  59  75 SW10      30.18R
NANTUCKET      PTCLDY    66  63  90 S6        30.19R
PROVIDENCE     PTCLDY    68  62  81 S7        30.18R
HARTFORD       PTCLDY    73  58  59 S10       30.14R
ALBANY         PTCLDY    68  64  87 CALM      30.12R
NEW YORK CITY  MOCLDY    76  66  71 S5        30.13R
$$

ANZ081-ANZ082-ANZ150-NHZ014-MEZ023>029-010300-
COASTAL MARINE OBSERVATIONS

STATION/POSITION TIME  TEMP    WIND        PRES    WAVE
                       AIR SEA DIR/SP/G            HT/PER
                 (UTC) (F)     (DEG/KT/KT) (MB)    (FT/S)
MOUNT DESERT ROC 0100   60                   N/A
MATINICUS ROCK   0100          180/ 16/ 16 1020.5R
PORTLAND WX BUOY 0200   66 64  180/ 10/ 12 1020.1R   3/ 8
WELLS            0200   66 62  260/  3/  3 1019.6R
ISLE OF SHOALS   0100   70     270/ 13/ 16 1019.9R
JEFFREYS LEDGE   0200      64                N/A     4/ 9
CASHES LEDGE BUO 0200   68 67  190/ 10/ 12 1020.9R   4/ 8
$$

.............KEY..............
   WCI - WIND CHILL
   TC  - TEMPERATURE IN CELSIUS
   VSB - VISIBILITY IN MILES
   HX  - HEAT INDEX
   FAIR- INDICATES FEW OR NO CLOUDS BELOW 12,000 FT, WITH NO
         SIGNIFICANT WEATHER AND/OR OBSTRUCTIONS TO VISIBILITY.




USA.gov is the U.S. government's official web portal to all federal, state and local government web resources and services.